User: anonymous   Login
Location: Ab? ar R?sh Ba?r?
(24.1861°N, 32.8847°E)
Time: 12:20:38
(UTC+00:00)
Language:

Milstar 3 Cent rocket - Orbit

View from above orbital plane
View from above orbital plane
View from above satellite
View from above satellite

Ground track
Ground track

The orbit data is extracted from the following two-line orbital elements,

1 25725U 99023B   22271.63960189 -.00000029  00000-0 -11119-3 0  9999
2 25725  28.3143  87.6692 2385895  27.3255 343.4768  9.67265240125516
Epoch (UTC): 28 September 2022 15:21:01
Eccentricity: 0.2385895
inclination: 28.3143°
perigee height: 706 km
apogee height: 5146 km
right ascension of ascending node: 87.6692°
argument of perigee: 27.3255°
revolutions per day: 9.67265240
mean anomaly at epoch: 343.4768°
orbit number at epoch: 12551

The dashed part of the orbit path shows where the satellite is in the earth's shadow,  

DLR